Location: Newark
(60.7728°N, 46.2261°E)
Time: 06:55:55
(UTC+00:00)

ISS - Pass Details

Date: 25 September 2019
Orbit: 411 x 421 km, 51.6° (Epoch: 16 October)

Event Time Altitude Azimuth Distance (km) Brightness Sun altitude
Rises 15:28:42 0° 210° (SSW) 2,340 0.3 -5.9°
Reaches altitude 10° 15:32:06 10° 173° (S) 1,481 -1.1 -6.3°
Maximum altitude 15:33:03 11° 156° (SSE) 1,423 -1.4 -6.4°
Drops below altitude 10° 15:34:01 10° 139° (SE) 1,482 -1.4 -6.5°
Enters shadow 15:35:10 - 122° (ESE) 1,687 -1.3 -6.7°
